Wind_Speed
21 21 22 22 21 21 22 23 23 23 23 24 24 24 24 24 25 25 25 25 25 25 25 25 26 26 27 27 27 28 28 27 27 27 27 27 26 26
21 21 22 23 22 22 23 23 24 24 24 25 25 25 26 26 26 26 26 25 26 26 26 26 26 27 27 27 27 28 28 28 28 28 28 28 27 26
22 22 22 22 22 22 22 24 25 25 25 26 27 27 27 28 28 27 27 27 26 26 26 27 27 27 28 28 28 28 28 28 29 29 29 29 28 27
23 22 22 22 22 22 23 24 25 26 26 26 27 27 27 29 29 29 28 28 28 28 28 28 28 28 29 29 29 28 28 28 28 28 28 29 29 28
23 23 23 22 23 23 24 25 25 26 26 27 28 28 28 29 30 30 30 30 29 29 29 29 29 29 29 29 28 27 27 27 28 28 28 28 28 28
23 24 23 23 24 24 25 27 27 27 28 28 29 29 29 29 30 31 31 30 30 29 29 29 29 29 27 27 27 27 27 28 28 28 29 29 29 30
25 25 25 24 25 25 26 27 27 28 29 29 29 29 29 29 29 29 29 29 29 29 28 29 29 29 28 27 28 28 28 29 29 29 29 29 30 31
26 26 26 26 26 27 27 27 27 28 28 29 29 29 29 29 29 29 29 28 27 28 28 28 28 27 27 28 28 29 29 29 29 29 30 30 30 31
26 26 27 28 28 28 28 27 27 27 28 28 28 29 29 29 29 29 28 28 28 28 28 27 27 26 27 28 28 29 29 29 30 30 31 31 31 31
27 27 27 28 27 28 28 28 28 29 29 30 30 29 29 29 29 28 28 28 29 29 28 26 26 26 26 27 28 28 30 30 30 30 30 31 32 32
27 28 28 28 27 27 28 28 28 28 29 29 30 30 29 29 30 29 29 29 28 28 28 27 26 27 26 27 27 27 29 30 30 31 31 31 31 31
27 27 27 27 27 27 27 27 26 27 28 28 28 29 29 29 29 29 28 28 28 26 27 27 27 27 27 27 27 27 28 29 29 29 30 30 31 31
27 27 27 26 26 26 26 26 26 27 27 27 27 28 28 28 28 28 27 27 26 25 25 26 27 28 28 27 27 27 27 27 28 28 28 29 29 30
26 26 26 25 25 26 26 26 27 28 28 28 28 27 27 27 27 27 27 26 26 25 25 26 26 26 27 27 27 27 26 26 27 28 28 28 28 29
26 25 25 25 25 25 26 26 27 27 27 27 26 26 27 27 26 26 26 25 25 24 24 25 25 25 25 26 26 26 27 27 27 28 28 28 28 28
25 24 24 24 25 25 25 26 26 26 26 26 26 27 27 26 26 25 25 24 24 23 24 24 25 25 25 25 25 25 26 26 27 27 27 28 28 28
24 24 24 24 24 24 24 25 26 26 26 27 27 27 26 25 25 24 24 24 23 23 24 24 24 25 25 25 25 25 26 26 26 27 26 27 27 27
24 24 24 24 25 24 24 25 25 26 26 26 26 26 25 24 24 23 23 23 23 24 24 24 24 25 25 25 25 25 25 25 25 25 25 26 26 27
24 25 25 26 26 25 25 25 26 26 26 26 26 25 24 24 23 23 23 23 23 24 24 24 24 25 25 25 25 25 26 25 25 25 25 25 26 26
25 25 25 26 25 25 25 25 25 26 26 25 25 25 24 24 23 23 23 23 23 23 23 23 24 24 24 25 25 25 25 25 25 25 24 25 25 25
25 25 25 25 25 26 25 25 25 25 25 25 25 25 24 23 22 22 21 21 21 22 23 23 23 24 24 24 24 24 24 24 24 23 23 24 24 23
24 25 25 25 25 24 24 25 25 26 25 25 25 24 23 23 22 21 21 21 20 20 21 21 21 22 22 22 23 23 22 22 22 22 23 23 23 22
25 25 25 25 24 24 24 25 26 25 25 25 25 23 23 22 22 22 21 20 20 21 20 20 20 20 20 20 21 21 21 21 21 22 22 22 22 22
Wind_Direction
296 293 290 287 284 282 280 280 282 281 281 280 280 280 279 281 281 280 279 277 275 274 274 273 271 270 267 266 265 262 259 257 257 257 257 258 259 261
296 296 293 289 286 283 282 283 283 283 283 282 281 281 282 282 281 280 279 278 275 274 272 272 271 270 269 268 266 264 262 260 257 256 256 257 256 258
296 295 295 292 287 286 286 286 284 283 285 284 283 282 282 282 282 280 279 277 275 274 273 271 270 271 270 268 265 263 262 260 259 258 257 257 256 255
296 295 294 291 289 287 287 286 285 283 283 284 283 282 281 280 281 281 279 277 275 274 273 271 270 271 270 268 265 262 261 260 259 259 258 257 257 257
298 296 294 292 290 287 287 287 286 285 286 285 284 284 282 281 280 280 279 277 275 272 271 269 270 271 270 267 265 263 262 261 260 260 261 260 257 257
298 297 294 291 290 287 287 287 286 286 287 287 286 285 283 283 282 279 278 276 273 271 270 270 270 268 267 265 264 264 263 261 261 262 262 261 258 257
298 296 294 292 292 290 291 290 288 288 289 288 286 286 284 284 282 280 278 276 274 272 271 270 270 268 266 265 264 264 263 262 261 261 261 261 260 257
297 295 293 292 293 293 292 290 289 288 290 288 285 285 284 283 282 280 279 277 274 272 272 272 270 268 266 264 264 263 261 261 260 261 261 260 259 256
298 295 294 292 292 292 291 291 291 290 290 290 289 287 286 285 282 280 278 277 275 273 274 272 270 269 268 266 265 262 260 261 260 261 261 260 258 256
299 295 293 292 293 292 291 292 292 291 290 289 288 288 287 286 286 283 278 276 275 274 275 272 270 269 267 265 265 263 262 261 261 261 261 261 259 258
300 297 296 295 292 291 292 292 293 292 290 288 288 287 287 287 286 284 282 278 277 275 275 272 270 269 266 264 263 263 263 262 261 261 261 260 260 259
301 299 298 297 294 292 293 294 294 294 292 291 290 290 288 287 286 284 281 279 277 276 274 271 268 268 266 264 264 262 262 262 262 261 260 259 259 258
303 302 301 299 297 296 295 295 296 295 294 293 292 291 289 288 287 283 280 279 278 277 275 273 270 268 267 265 264 263 262 262 263 261 260 259 257 256
304 303 302 300 299 298 296 298 298 297 296 295 294 293 292 291 288 283 281 279 277 275 274 274 272 269 267 265 264 262 262 261 261 261 260 260 259 257
305 303 302 300 300 299 297 298 299 299 298 296 295 294 294 293 288 284 282 279 275 272 273 275 274 271 268 266 265 262 262 262 261 260 258 259 259 258
306 305 302 301 300 299 298 298 299 299 299 297 295 295 295 292 289 286 283 279 275 272 273 274 273 271 269 267 265 264 264 262 261 261 260 259 258 258
308 306 305 305 305 303 302 302 302 300 299 298 297 296 294 291 289 287 283 280 277 275 274 274 272 270 268 268 267 265 263 261 261 261 260 258 256 257
309 308 308 307 307 305 303 303 303 303 302 301 299 297 295 292 290 287 283 281 279 277 277 275 272 271 270 269 270 268 265 262 260 259 258 256 255 254
309 308 309 310 310 307 305 304 304 305 305 302 300 298 294 292 290 286 282 280 279 277 276 274 272 272 271 270 269 269 267 263 260 258 259 258 256 253
309 309 309 309 309 308 307 305 305 305 305 303 301 298 295 293 293 290 285 281 280 279 279 276 274 272 271 271 269 268 267 265 262 259 258 258 257 257
309 310 310 309 308 306 305 306 307 306 305 304 302 299 296 294 293 292 288 284 281 279 278 277 276 273 272 271 269 269 268 265 263 259 259 259 258 259
307 309 310 310 308 307 307 307 307 307 306 304 303 300 297 295 292 291 289 286 283 282 280 276 274 275 272 271 270 269 267 265 263 261 261 260 258 257
309 308 310 311 310 308 307 307 307 307 307 306 304 302 298 296 293 292 290 289 286 283 281 276 274 273 272 270 270 268 267 265 262 260 258 257 257 255
Height
5830 5828 5827 5827 5826 5825 5824 5824 5824 5823 5822 5822 5821 5821 5821 5820 5820 5820 5819 5819 5818 5818 5818 5818 5818 5818 5819 5819 5820 5821 5822 5823 5825 5826 5828 5829 5830 5831
5825 5823 5822 5821 5820 5819 5818 5817 5817 5817 5816 5815 5814 5814 5814 5813 5812 5812 5811 5811 5810 5810 5810 5810 5810 5810 5811 5811 5812 5813 5814 5815 5816 5818 5819 5821 5822 5823
5819 5817 5816 5814 5814 5813 5812 5811 5810 5809 5809 5808 5807 5807 5806 5805 5804 5804 5803 5803 5802 5802 5802 5802 5802 5802 5803 5803 5803 5804 5805 5806 5808 5809 5811 5813 5814 5815
5813 5811 5810 5808 5808 5806 5805 5804 5802 5801 5801 5800 5799 5798 5798 5797 5796 5795 5794 5794 5794 5794 5794 5794 5794 5794 5794 5794 5795 5795 5797 5798 5799 5801 5803 5805 5807 5807
5806 5805 5804 5802 5801 5800 5798 5796 5795 5794 5793 5792 5791 5790 5789 5788 5787 5787 5786 5785 5785 5785 5785 5785 5785 5785 5785 5785 5786 5787 5788 5790 5791 5793 5794 5796 5798 5800
5800 5798 5797 5795 5794 5793 5791 5789 5787 5786 5785 5784 5783 5782 5781 5779 5778 5777 5777 5776 5776 5776 5776 5776 5776 5776 5776 5777 5777 5779 5780 5781 5782 5784 5786 5787 5789 5791
5793 5791 5790 5788 5786 5785 5783 5781 5779 5778 5777 5776 5775 5773 5772 5770 5769 5768 5768 5767 5767 5766 5766 5767 5766 5767 5767 5768 5769 5770 5771 5772 5773 5775 5777 5778 5780 5781
5786 5784 5782 5781 5779 5777 5776 5774 5772 5770 5768 5766 5766 5764 5763 5761 5760 5759 5758 5758 5759 5758 5757 5757 5757 5758 5759 5759 5760 5761 5762 5764 5765 5766 5767 5769 5771 5772
5778 5776 5774 5773 5771 5769 5767 5766 5764 5762 5760 5759 5757 5755 5754 5753 5751 5750 5749 5749 5749 5748 5748 5749 5748 5749 5750 5750 5751 5752 5754 5755 5756 5757 5759 5760 5762 5764
5771 5768 5766 5764 5762 5761 5759 5757 5755 5754 5752 5750 5748 5747 5745 5744 5742 5741 5740 5740 5740 5740 5739 5740 5740 5740 5741 5742 5742 5743 5744 5746 5747 5748 5750 5751 5753 5755
5763 5760 5758 5756 5754 5752 5751 5749 5747 5745 5743 5741 5739 5738 5736 5735 5733 5733 5732 5732 5732 5731 5731 5731 5732 5732 5732 5733 5734 5734 5735 5737 5738 5739 5741 5742 5744 5745
5756 5753 5751 5748 5746 5744 5743 5741 5739 5737 5735 5733 5731 5729 5727 5726 5725 5724 5723 5722 5722 5723 5722 5722 5722 5723 5724 5725 5725 5726 5727 5728 5729 5730 5731 5733 5734 5735
5749 5746 5743 5741 5739 5737 5735 5733 5731 5729 5726 5724 5722 5721 5719 5718 5716 5715 5714 5714 5713 5714 5714 5713 5713 5714 5714 5715 5717 5717 5718 5719 5720 5721 5722 5723 5725 5726
5741 5739 5736 5734 5732 5730 5728 5726 5723 5720 5719 5716 5715 5713 5711 5709 5708 5707 5706 5705 5704 5704 5704 5704 5705 5705 5705 5706 5708 5709 5710 5711 5712 5713 5714 5715 5716 5717
5735 5732 5730 5727 5725 5723 5720 5718 5715 5713 5711 5709 5707 5705 5703 5701 5699 5698 5697 5696 5696 5696 5696 5696 5696 5696 5697 5698 5699 5700 5701 5702 5703 5704 5705 5706 5707 5708
5728 5725 5723 5720 5718 5715 5713 5710 5708 5705 5703 5701 5699 5697 5695 5693 5691 5690 5689 5688 5688 5688 5688 5688 5688 5688 5689 5689 5690 5691 5692 5693 5694 5694 5695 5697 5698 5699
5722 5719 5716 5713 5711 5708 5705 5703 5700 5698 5696 5693 5691 5689 5687 5686 5684 5682 5681 5680 5680 5680 5680 5680 5680 5680 5681 5681 5682 5682 5683 5683 5684 5685 5686 5687 5688 5690
5716 5713 5710 5707 5704 5701 5699 5696 5694 5691 5688 5686 5684 5682 5680 5678 5676 5675 5674 5673 5672 5672 5672 5672 5672 5672 5672 5673 5673 5673 5674 5674 5675 5676 5677 5678 5680 5681
5710 5707 5704 5701 5698 5695 5692 5689 5687 5684 5681 5679 5677 5675 5673 5671 5669 5668 5667 5665 5664 5664 5664 5664 5664 5664 5664 5665 5666 5665 5665 5666 5666 5667 5668 5669 5671 5672
5705 5701 5698 5695 5692 5689 5686 5683 5680 5677 5675 5672 5670 5668 5666 5664 5662 5661 5659 5658 5657 5657 5656 5656 5656 5656 5657 5657 5658 5658 5657 5657 5658 5659 5660 5661 5662 5664
5699 5695 5692 5689 5686 5683 5679 5677 5674 5671 5669 5666 5663 5661 5659 5657 5655 5654 5652 5651 5650 5649 5649 5649 5649 5649 5649 5649 5649 5650 5650 5650 5650 5651 5653 5654 5655 5656
5692 5689 5686 5683 5680 5676 5674 5671 5668 5665 5662 5659 5657 5654 5652 5650 5648 5647 5645 5644 5643 5642 5642 5641 5641 5641 5641 5642 5642 5642 5642 5643 5643 5644 5645 5647 5648 5649
5687 5684 5680 5677 5674 5671 5668 5665 5662 5659 5656 5653 5650 5648 5646 5644 5642 5640 5639 5637 5636 5635 5635 5635 5635 5634 5634 5634 5635 5635 5635 5636 5636 5637 5638 5639 5641 5642